Regional Weather Roundup
Issued by NWS

Current Version | Previous Version | Text Only | Print | Product List | Glossary Off
Versions: 1 2 3 4 5 6 7 8 9 10 11 12 13 14 15 16 17 18 19 20 21 22 23 24 25 26 27

000
ASUS44 KBMX 230710
RWRAL

ALABAMA REGIONAL WEATHER ROUNDUP
NATIONAL WEATHER SERVICE BIRMINGHAM AL
200 AM CDT WED APR 23 2014

NOTE: "FAIR" INDICATES FEW OR NO CLOUDS BELOW 12,000 FEET
WITH NO SIGNIFICANT WEATHER AND/OR OBSTRUCTIONS TO VISIBILITY.

THE REMARK "TC" DENOTES TEMPERATURE IN DEGREES CELSIUS.

ALZ001>011-014-016>018-020-230800-
NORTH ALABAMA

CITY           SKY/WX    TMP DP  RH WIND       PRES   REMARKS
MUSCLE SHOALS  CLEAR     60  45  57 N3        29.96R
HUNTSVILLE     CLEAR     59  46  62 N8        29.93R
DECATUR        CLEAR     59  45  59 N6        29.94R
HALEYVILLE     FAIR      54  50  86 N5        29.96S
GADSDEN          N/A     55  54  94 CALM      29.89F VSB 3/4
$$

ALZ012-013-022-023-030>036-040>044-230800-
WEST CENTRAL ALABAMA

CITY           SKY/WX    TMP DP  RH WIND       PRES   REMARKS
TUSCALOOSA     FOG       58  58 100 CALM      29.91S VSB 1/4
$$

ALZ015-024>027-033>036-040>044-230800-
CENTRAL ALABAMA

CITY           SKY/WX    TMP DP  RH WIND       PRES   REMARKS
BIRMINGHAM     CLEAR     59  57  93 CALM      29.92S FOG
MONTGOMERY     CLEAR     59  57  93 CALM      29.89F
SHELBY CO ARPT CLEAR     63  61  93 NW3       29.90S
MAXWELL AFB    FOG       63  63 100 SW2       29.89S VSB 1/4
GREENVILLE     FAIR      59  56  89 CALM      29.89S
$$

ALZ019-021-028-029-037-038-045>048-230800-
EAST CENTRAL ALABAMA

CITY           SKY/WX    TMP DP  RH WIND       PRES   REMARKS
ANNISTON       CLOUDY    61  60  97 S3        29.89F FOG
ALEXANDER CITY CLEAR     58  54  86 CALM      29.89F FOG
AUBURN         CLEAR     59  57  94 N6        29.91F
$$

ALZ051>064-230800-
SOUTHWEST ALABAMA

CITY           SKY/WX    TMP DP  RH WIND       PRES   REMARKS
MOBILE         CLEAR     62  62 100 N3        29.91F
BROOKLEY FIELD CLEAR     62  61  96 NW5       29.92S
EVERGREEN      FOG       60  58  92 CALM      29.91F VSB 3/4
$$

ALZ049-050-065>069-230800-
SOUTHEAST ALABAMA

CITY           SKY/WX    TMP DP  RH WIND       PRES   REMARKS
DOTHAN         CLEAR     62  60  93 CALM      29.92F
OZARK          CLEAR     61  60  97 CALM      29.89F
TROY           FOG       57  56  96 CALM      29.90S VSB 1/4
EUFAULA        FOG       59  57  93 CALM      29.87F VSB 1/4
$$



USA.gov is the U.S. government's official web portal to all federal, state and local government web resources and services.